www.pogodaiklimat.ru

Архив погоды в Сантьяго-дель-Эстеро (Аргентина)

Время
(UTC), дата
10 6.04
11 6.04
12 6.04
13 6.04
14 6.04
15 6.04
16 6.04
17 6.04
18 6.04
19 6.04
20 6.04
21 6.04
22 6.04
23 6.04
00 7.04
01 7.04
02 7.04
03 7.04
04 7.04
05 7.04
06 7.04
07 7.04
08 7.04
09 7.04
10 7.04
11 7.04
12 7.04
13 7.04
14 7.04
15 7.04
16 7.04
17 7.04
18 7.04
19 7.04
20 7.04
21 7.04
22 7.04
23 7.04
00 8.04
01 8.04
02 8.04
03 8.04
04 8.04
05 8.04
06 8.04
07 8.04
08 8.04
09 8.04
10 8.04
11 8.04
12 8.04
13 8.04
14 8.04
15 8.04
16 8.04
17 8.04
18 8.04
19 8.04
20 8.04
21 8.04
22 8.04
23 8.04
00 9.04
01 9.04
02 9.04
03 9.04
04 9.04
05 9.04
06 9.04
07 9.04
08 9.04
09 9.04
10 9.04
11 9.04
12 9.04
13 9.04
14 9.04
15 9.04
16 9.04
17 9.04
18 9.04
19 9.04
20 9.04
21 9.04
22 9.04
23 9.04
00 10.04
01 10.04
02 10.04
03 10.04
04 10.04
05 10.04
06 10.04
07 10.04
08 10.04
09 10.04
10 10.04
11 10.04
12 10.04
13 10.04
14 10.04
15 10.04
16 10.04
17 10.04
18 10.04
19 10.04
20 10.04
21 10.04
22 10.04
23 10.04
00 11.04
01 11.04
02 11.04
03 11.04
04 11.04
05 11.04
06 11.04
07 11.04
08 11.04
09 11.04
10 11.04
11 11.04
12 11.04
13 11.04
14 11.04
15 11.04
16 11.04
17 11.04
18 11.04
19 11.04
20 11.04
21 11.04
22 11.04
23 11.04
00 12.04
01 12.04
02 12.04
03 12.04
04 12.04
05 12.04
06 12.04
07 12.04
08 12.04
09 12.04
11 12.04
12 12.04
13 12.04
14 12.04
15 12.04
16 12.04
17 12.04
18 12.04
19 12.04
20 12.04
21 12.04
22 12.04
23 12.04
00 13.04
01 13.04
02 13.04
03 13.04
04 13.04
05 13.04
06 13.04
07 13.04
08 13.04
09 13.04
Ветер
(напр.,м/с)
Видим. Явления Облачность Т
(С)
Тd
(С)
f
(%)
Тe
(С)
Тes
(С)
Комфортность P
(гПа)
Po
(гПа)
Тmin
(С)
Tmax
(С)
R
(мм)
R24
(мм)
S
(см)
С 1 8000 м морось туман 10/10 240 м
[Frnb]
+21.2 +20.9 98 +27 +27 душно 1010.8 987.8
СЗ 2 8000 м в посл. час морось туман 10/10 240 м
[Frnb]
+21.2 +20.9 98 +27 +27 душно 1010.7 987.8
С 1 8000 м дымка {морось} 10/10 240 м
[Frnb]
+21.6 +21.1 97 +28 +28 очень душно 1011.1 988.1 +19.4 +22.0 6
СЗ 1 8000 м дымка 10/10 240 м
[Frnb]
+22.0 +21.1 95 +28 +28 душно 1010.8 987.8
СЗ 1 10 км 10/10 360 м
[Frnb]
+22.6 +21.6 94 +30 +30 очень душно 1010.6 987.7
штиль 0 10 км 10/10 750 м
[Sc]
+24.0 +21.6 86 +31 +31 очень душно 1010.0 987.0
штиль 0 10 км 10/10 750 м
[Sc]
+24.2 +21.8 86 +31 +31 очень душно 1009.3 986.4
ЮВ 1 10 км 10/8 750 м
[Sc Ac As]
+25.0 +22.4 86 +33 +34 очень душно 1008.3 985.4
В 2 10 км 9/5 900 м
[Sc Ac As]
+26.0 +22.5 81 +34 +37 очень душно 1007.7 984.9
В 2 10 км 10/6 900 м
[Sc Ac As]
+26.3 +23.0 82 +35 +36 очень душно 1007.2 984.5
В 3 10 км 10/6 900 м
[Sc Ac As]
+25.9 +23.0 84 +35 +35 очень душно 1007.7 984.9
В 1 10 км 10/6 900 м
[Sc Ac As]
+25.8 +23.0 85 +34 +35 очень душно 1008.2 985.4
штиль 0 10 км 10/6 900 м
[Sc Ac As]
+25.5 +23.2 87 +34 +34 очень душно 1008.5 985.7
В 1 10 км 10/5 750 м
[Sc Ac As]
+25.3 +23.6 90 +34 +34 очень душно 1009.5 986.6
ЮВ 3 10 км 10/8 360 м
[Sc Ac As]
+24.8 +23.3 91 +33 +33 очень душно 1010.8 988.0 +21.4 +26.5
ЮВ 4 6000 м слаб. морось туман 10/10 300 м
[Frnb]
+22.5 +21.8 96 +30 +30 очень душно 1012.1 989.2
Ю 6 7000 м слаб. морось туман 10/10 210 м
[Frnb]
+21.9 +21.0 95 +28 +28 душно 1013.3 990.2
ЮВ 5 6000 м слаб. морось туман 10/10 180 м
[Frnb]
+21.1 +20.2 95 +26 +26 душно 1013.6 990.6
ЮВ 4 7000 м слаб. морось туман 10/10 180 м
[Frnb]
+19.4 +18.9 97 +22 +22 комфорт 1013.8 990.8
Ю 5 10 км в посл. час морось 10/10 180 м
[Frnb]
+19.0 +17.7 92 +20 +20 1014.1 991.0
Ю 5 8000 м слаб. морось 10/10 180 м
[Frnb]
+18.3 +17.7 96 +19 +19 1013.9 990.9 0.0
Ю 5 10 км в посл. час морось 10/10 150 м
[Frnb]
+18.0 +16.7 92 +18 +18 1013.0 990.0
Ю 4 10 км {морось} 10/10 150 м
[Frnb]
+17.8 +16.6 93 +18 +18 1012.6 989.6
Ю 4 7000 м слаб. морось туман 10/10 180 м
[Frnb]
+17.3 +16.8 97 +17 +17 1013.0 990.0
Ю 4 9000 м в посл. час морось туман 10/10 180 м
[Frnb]
+17.1 +15.9 93 +17 +17 1014.1 991.0
ЮВ 2 10 км {морось} 10/8 450 м
[St Ac As]
+17.0 +16.0 94 +17 +17 1015.0 991.8
Ю 3 10 км {морось} 10/10 300 м
[St]
+17.4 +16.1 92 +17 +17 1015.8 992.6 +16.8 +25.2 0.0
Ю 2 10 км 10/10 450 м
[St]
+17.8 +16.8 94 +18 +18 1016.3 993.0
Ю 2 10 км 10/10 600 м
[Sc]
+18.8 +16.8 88 +21 +21 комфорт 1016.1 992.9
Ю 3 10 км 10/10 750 м
[Sc]
+19.4 +16.8 85 +22 +22 комфорт 1015.9 992.6
Ю 3 10 км 8/8 600 м
[Sc]
+20.8 +18.6 87 +25 +28 комфорт 1015.7 992.5
В 3 10 км 6/6 750 м
[St]
+22.6 +17.8 74 +28 +33 душно 1014.7 991.6
В 3 10 км 6/6 750 м
[Sc]
+24.4 +18.1 68 +29 +33 душно 1013.9 990.9 0.0
СВ 2 10 км 8/8 750 м
[Sc]
+23.2 +18.2 73 +29 +31 душно 1013.6 990.5
В 3 10 км 5/5 1050 м
[Sc]
+23.0 +18.3 75 +29 +30 очень душно 1013.5 990.4
В 2 10 км 4/4 1050 м
[Sc]
+22.2 +18.1 78 +27 +28 душно 1013.5 990.2
В 3 10 км 3/3 1050 м
[Sc]
+21.2 +17.7 80 +25 +25 комфорт 1013.6 990.4
В 2 10 км ясно +19.9 +17.7 87 +23 +23 комфорт 1014.0 990.6
В 2 10 км 3/3 750 м
[Sc]
+19.2 +17.6 90 +22 +22 комфорт 1014.7 991.4 +17.2 +24.6
В 2 10 км 8/8 750 м
[Sc]
+19.4 +17.1 87 +22 +22 комфорт 1015.3 992.0
В 1 10 км 4/4 750 м
[Sc]
+18.6 +17.3 92 +21 +21 комфорт 1015.7 992.4
В 1 10 км 3/3 750 м
[Sc]
+18.0 +17.3 96 +19 +19 1015.6 992.2
В 1 10 км 8/8 750 м
[Sc]
+17.6 +17.1 97 +19 +19 1015.4 992.2
В 1 10 км 6/6 600 м
[Sc]
+17.9 +17.2 96 +19 +19 1015.0 991.8
штиль 0 10 км 10/10 450 м
[Sc]
+17.9 +17.4 97 +18 +18 1014.1 991.0
штиль 0 10 км 10/10 450 м
[Sc]
+17.9 +17.1 95 +18 +18 1013.6 990.5
СВ 2 10 км 10/10 900 м
[Sc]
+17.5 +17.2 98 +18 +18 1012.8 989.7
В 2 6000 м слаб. морось 10/10 450 м
[Sc]
+17.5 +17.2 98 +18 +18 1012.4 989.3
СВ 2 6000 м слаб. морось 10/10 450 м
[Sc]
+17.4 +17.1 98 +18 +18 1012.7 989.4
СВ 2 10 км в посл. час морось 10/10 300 м
[Frnb]
+17.4 +17.1 98 +18 +18 1012.7 989.4
СВ 3 8000 м слаб. морось 10/10 300 м
[Frnb]
+17.8 +17.1 96 +18 +18 1012.9 989.7 +17.2 +19.6 0.0
СВ 3 10 км в посл. час морось 10/10 300 м
[Frnb]
+18.4 +17.8 96 +19 +19 1013.1 989.8
СВ 3 10 км {морось} 10/10 300 м
[Frnb]
+19.4 +17.8 90 +22 +22 комфорт 1013.0 989.8
СВ 3 10 км {морось} 10/10 450 м
[Frnb]
+20.8 +18.3 86 +25 +25 комфорт 1012.6 989.4
СВ 3 10 км 9/6 1050 м
[Sc Ac As]
+22.7 +18.1 75 +28 +30 душно 1011.4 988.2
СВ 3 10 км 9/6 1050 м
[Sc Ac As]
+23.6 +18.6 74 +28 +31 душно 1010.2 987.2
СВ 3 10 км {морось} 9/6 1050 м
[Sc Ac As]
+24.0 +18.5 71 +28 +30 душно 1009.3 986.2 0.0
СВ 3 10 км 9/6 1050 м
[Sc Ac As]
+24.7 +18.6 69 +29 +31 душно 1008.4 985.4
СВ 2 10 км 8/5 1050 м
[Sc Ac As]
+26.0 +19.3 67 +31 +33 очень душно 1007.6 984.6
В 2 10 км 8/5 1050 м
[Sc Ac As]
+25.4 +19.8 71 +31 +31 очень душно 1007.2 984.2
В 2 10 км 8/0
[Ac As]
+24.4 +20.1 77 +30 +30 очень душно 1007.1 984.2
В 2 10 км 9/0
[Ac As]
+23.6 +19.9 80 +29 +29 душно 1007.6 984.6
СВ 2 10 км 9/0
[Ac As]
+22.8 +19.7 83 +29 +29 очень душно 1008.3 985.3 +17.6 +26.4
СВ 2 10 км 10/0
[Ac As]
+22.8 +19.7 83 +29 +29 очень душно 1009.1 986.1
СВ 2 10 км 10/4 900 м
[Sc Ac As]
+22.9 +20.3 85 +30 +30 очень душно 1009.6 986.6
штиль 0 10 км 10/4 900 м
[Sc Ac As]
+22.8 +20.4 86 +30 +30 очень душно 1009.8 986.9
штиль 0 10 км 10/4 900 м
[Sc Ac As]
+22.8 +20.4 86 +30 +30 очень душно 1010.2 987.3
штиль 0 10 км 10/5 900 м
[Sc Ac As]
+22.4 +20.6 90 +29 +29 очень душно 1010.2 987.4
штиль 0 10 км 10/6 900 м
[Sc Ac As]
+22.4 +20.6 90 +29 +29 очень душно 1010.4 987.6
штиль 0 10 км 10/6 900 м
[Sc Ac As]
+22.3 +20.6 90 +29 +29 очень душно 1010.3 987.4
штиль 0 10 км 10/6 900 м
[Sc Ac As]
+22.4 +20.6 90 +29 +29 очень душно 1010.3 987.6
В 1 9000 м слаб. морось 10/10 600 м
[St]
+22.2 +20.7 91 +29 +29 очень душно 1011.1 988.2
штиль 0 9000 м слаб. морось 10/10 600 м
[St]
+22.0 +21.1 95 +28 +28 душно 1011.7 988.8
Ю 1 10 км в посл. час морось 9/9 600 м
[St]
+21.6 +21.0 96 +27 +27 душно 1012.5 989.6
Ю 2 2000 м слаб. морось туман 10/10 300 м
[St]
+21.6 +21.0 96 +27 +27 душно 1013.7 990.6 +21.2 +23.1 0.4
ЮВ 2 6000 м в посл. час морось туман 10/10 240 м
[St]
+22.0 +21.2 95 +28 +28 душно 1014.2 991.2
Ю 1 2000 м морось туман 10/10 150 м
[St]
+22.8 +21.9 95 +31 +31 очень душно 1014.3 991.4
Ю 3 8000 м слаб. морось туман 10/10 210 м
[St]
+23.4 +21.9 91 +32 +32 очень душно 1014.2 991.3
Ю 3 10 км в посл. час морось 10/10 360 м
[St]
+23.4 +21.9 91 +32 +32 очень душно 1013.9 991.0
Ю 3 6000 м слаб. морось 10/10 300 м
[St]
+23.8 +22.3 91 +31 +31 очень душно 1013.2 990.3
ЮВ 3 9000 м слаб. морось 10/10 300 м
[St]
+24.0 +22.5 91 +31 +31 очень душно 1012.6 989.7 1
Ю 1 10 км в посл. час морось 9/9 450 м
[St]
+24.2 +21.7 86 +31 +32 очень душно 1012.1 989.2
В 1 10 км {морось} 9/9 750 м
[Sc]
+24.6 +22.5 88 +32 +33 очень душно 1011.0 988.2
В 2 10 км {морось} 9/9 750 м
[Sc]
+24.0 +22.5 91 +31 +31 очень душно 1010.6 987.8
В 1 10 км 9/9 900 м
[Sc]
+23.8 +22.3 91 +31 +31 очень душно 1010.9 988.0
В 2 10 км 9/9 900 м
[Sc]
+23.4 +21.9 91 +32 +32 очень душно 1011.2 988.2
В 1 10 км {морось} 10/10 600 м
[St]
+23.2 +22.0 93 +32 +32 очень душно 1012.1 989.2 +21.3 +24.8
В 1 10 км слаб. морось 10/10 450 м
[St]
+23.2 +22.0 93 +32 +32 очень душно 1012.3 989.4
В 1 8000 м слаб. морось туман 10/10 450 м
[St]
+23.2 +22.0 93 +32 +32 очень душно 1012.6 989.7
ЮВ 1 8000 м слаб. морось туман 10/10 450 м
[St]
+23.0 +21.8 93 +31 +31 очень душно 1012.9 990.0
Ю 2 6000 м слаб. морось туман 10/10 450 м
[St]
+22.6 +21.7 95 +30 +30 очень душно 1012.7 989.8
Ю 3 6000 м слаб. морось туман 10/10 450 м
[St]
+22.4 +21.5 95 +30 +30 очень душно 1012.3 989.4
Ю 1 6000 м слаб. морось туман 10/10 300 м
[St]
+22.2 +21.0 93 +29 +29 очень душно 1012.2 989.3 3
В 2 6000 м слаб. морось туман 10/10 300 м
[St]
+22.3 +20.9 92 +29 +29 очень душно 1011.6 988.8
Ю 3 5000 м слаб. морось туман 10/10 300 м
[St]
+22.2 +21.0 93 +29 +29 очень душно 1011.1 988.2
Ю 4 5000 м дождь {морось} туман 10/10 240 м
[St]
+20.8 +20.2 96 +26 +26 душно 1011.5 988.6
Ю 5 5000 м дождь {морось} туман 10/10 240 м
[St]
+20.4 +20.1 98 +24 +24 комфорт 1012.2 989.3
Ю 4 4000 м дождь {морось} туман 10/10 180 м
[Frnb]
+20.2 +19.9 98 +24 +24 комфорт 1013.1 990.1
Ю 4 7000 м слаб. морось {дождь} 10/10 100 м
[Frnb]
+20.2 +19.9 98 +24 +24 комфорт 1013.8 990.8 7
Ю 4 3000 м дождь {морось} туман 10/10 150 м
[Frnb]
+20.3 +20.0 98 +24 +24 комфорт 1014.7 991.7
ЮВ 3 2000 м дождь {морось} туман 10/10 120 м
[Frnb]
+20.4 +20.2 99 +25 +25 комфорт 1015.2 992.2
В 3 2000 м морось {дождь} туман 10/10 120 м
[Frnb]
+20.3 +20.0 98 +25 +25 комфорт 1015.2 992.1
ЮВ 3 2000 м морось туман 10/10 90 м
[Frnb]
+20.3 +20.0 98 +25 +25 комфорт 1015.0 991.8
ЮВ 3 1500 м сильн. морось туман 10/10 60 м
[Frnb]
+19.9 +19.4 97 +23 +23 комфорт 1014.9 991.8
ЮВ 4 2000 м морось {дождь} туман 10/10 60 м
[Frnb]
+20.0 +19.7 98 +23 +23 комфорт 1014.5 991.4 7
Ю 5 3000 м морось туман 10/10 60 м
[Frnb]
+19.5 +19.0 97 +22 +22 комфорт 1014.7 991.6
ЮВ 5 1500 м морось туман 10/10 60 м
[Frnb]
+19.3 +19.0 98 +21 +21 комфорт 1014.7 991.6
Ю 5 2000 м морось туман 10/10 60 м
[Frnb]
+19.3 +19.0 98 +21 +21 комфорт 1015.0 991.8
Ю 4 2000 м морось туман 10/10 60 м
[Frnb]
+19.3 +19.0 98 +21 +21 комфорт 1015.2 992.0
Ю 5 2000 м морось туман 10/10 60 м
[Frnb]
+18.8 +18.5 98 +20 +20 1016.0 992.8
Ю 7 2000 м морось туман 10/10 60 м
[Frnb]
+18.8 +18.2 96 +19 +19 1016.9 993.6 +18.6 +20.8 2
Ю 6 2000 м морось туман 10/10 60 м
[Frnb]
+18.5 +17.7 95 +19 +19 1018.2 994.9
Ю 6 2000 м морось 10/10 60 м
[Frnb]
+17.8 +17.5 98 +17 +17 1019.4 996.1
ЮВ 5 4000 м слаб. морось 10/10 120 м
[Frnb]
+16.8 +15.8 94 +16 +16 1020.0 996.6
Ю 6 4000 м слаб. морось 10/10 120 м
[Frnb]
+15.8 +15.3 97 +14 +14 1020.4 996.9
Ю 6 4000 м слаб. морось 10/10 120 м
[Frnb]
+15.6 +14.9 96 +14 +14 1020.4 996.9
ЮВ 5 4000 м слаб. морось 10/10 120 м
[Frnb]
+14.8 +14.1 96 +13 +13 1020.1 996.6 1
Ю 6 4000 м слаб. морось 10/10 120 м
[Frnb]
+14.4 +13.7 96 +12 +12 1019.8 996.2
Ю 5 4000 м слаб. морось 10/10 120 м
[Frnb]
+14.0 +13.3 96 +12 +12 1019.7 996.2
Ю 5 5000 м слаб. морось 10/10 120 м
[Frnb]
+13.0 +12.3 96 +11 +11 1020.0 996.4
Ю 4 5000 м слаб. морось 10/10 120 м
[Frnb]
+13.0 +12.3 96 +11 +11 1020.2 996.6
Ю 4 8000 м слаб. морось 10/10 120 м
[Frnb]
+13.0 +12.5 97 +11 +11 1020.6 997.0
Ю 4 8000 м слаб. морось 10/10 120 м
[Frnb]
+13.0 +12.5 97 +11 +11 1021.4 997.8 +12.6 +19.0 1
Ю 5 4000 м слаб. морось 10/10 210 м
[Frnb]
+13.2 +12.8 97 +11 +11 1021.9 998.2
Ю 4 4000 м слаб. морось туман 10/10 120 м
[Frnb]
+13.4 +12.9 97 +12 +12 1021.9 998.2
Ю 5 8000 м слаб. морось туман 10/10 210 м
[Frnb]
+13.8 +12.9 94 +12 +12 1021.5 997.8
Ю 2 8000 м в посл. час морось туман 10/10 210 м
[Frnb]
+14.3 +12.7 90 +14 +14 1020.9 997.2
Ю 5 8000 м дымка {морось} 10/10 450 м
[Frnb]
+14.6 +12.8 89 +13 +13 1020.4 996.6
Ю 3 10 км {морось} 10/10 600 м
[Sc]
+14.4 +12.6 89 +13 +13 1019.5 995.8 0.0
Ю 4 10 км 10/10 600 м
[Sc]
+14.8 +12.6 87 +14 +14 1018.8 995.0
ЮВ 4 4000 м слаб. морось туман 10/10 300 м
[Frnb]
+14.9 +13.7 93 +14 +14 1018.5 994.8
Ю 3 4000 м слаб. морось туман 10/10 300 м
[Frnb]
+14.4 +14.0 97 +13 +13 1018.0 994.2
ЮВ 2 4000 м слаб. морось туман 10/10 300 м
[Frnb]
+14.4 +13.7 96 +14 +14 1018.3 994.5
ЮВ 2 2000 м морось туман 10/10 180 м
[Frnb]
+14.2 +13.8 97 +14 +14 1019.1 995.3
Ю 3 2500 м слаб. морось туман 10/10 60 м
[Frnb]
+14.0 +13.6 97 +13 +13 1019.8 996.0 +12.8 +15.2 2
Ю 2 3000 м слаб. морось туман 10/10 60 м
[Frnb]
+14.0 +13.6 97 +13 +13 1020.3 996.5
Ю 2 3000 м слаб. морось туман 10/10 60 м
[Frnb]
+14.0 +13.6 97 +14 +14 1020.7 996.9
Ю 3 5000 м слаб. морось туман 10/10 120 м
[Frnb]
+13.8 +13.4 97 +13 +13 1020.4 996.6
Ю 2 4000 м слаб. морось туман 10/10 120 м
[Frnb]
+14.2 +13.8 97 +14 +14 1020.0 996.2
Ю 1 4000 м слаб. морось туман 10/10 90 м
[Frnb]
+14.0 +13.6 97 +14 +14 1019.5 995.8
Ю 3 4000 м слаб. морось туман 10/10 90 м
[Frnb]
+13.8 +13.6 99 +13 +13 1019.1 995.4 3
Ю 3 3500 м слаб. морось туман 10/10 60 м
[Frnb]
+14.4 +14.2 99 +14 +14 1018.4 994.6
Ю 2 3000 м слаб. морось туман 10/10 60 м
[Frnb]
+14.4 +14.0 97 +14 +14 1017.7 994.0
Ю 3 3000 м слаб. морось туман 10/10 120 м
[Frnb]
+14.4 +14.0 97 +13 +13 1017.5 993.8
Ю 3 2000 м слаб. морось туман 10/10 90 м
[Frnb]
+14.7 +14.4 98 +14 +14 1017.5 993.8
Ю 3 1500 м слаб. морось туман 10/10 60 м
[Frnb]
+14.9 +14.6 98 +14 +14 1017.7 994.0 +13.6 +15.1 2
Ю 4 2000 м слаб. морось туман 10/10 60 м
[Frnb]
+15.2 +15.0 99 +14 +14 1017.8 994.1
Ю 3 3000 м слаб. морось туман 10/10 60 м
[Frnb]
+15.5 +15.2 98 +15 +15 1017.8 994.1
Ю 4 5000 м слаб. морось туман 10/10 60 м
[Frnb]
+16.2 +15.7 97 +16 +16 1017.4 993.8
Ю 4 10 км в посл. час морось 10/10 60 м
[Frnb]
+17.1 +15.8 92 +17 +17 1016.8 993.2
ЮВ 4 2500 м слаб. морось туман 10/10 60 м
[Frnb]
+16.8 +16.0 95 +16 +16 1015.8 992.2
ЮВ 3 10 км в посл. час морось 10/10 90 м
[Frnb]
+18.4 +16.4 88 +19 +19 1014.5 991.0 1
Ю 3 10 км {морось} 10/10 90 м
[Frnb]
+17.3 +15.6 90 +17 +17 1013.9 990.4
ЮВ 4 3000 м слаб. морось туман 10/10 90 м
[Frnb]
+16.9 +16.1 95 +16 +16 1013.7 990.2
Ю 3 1500 м слаб. морось туман 10/10 60 м
[Frnb]
+16.4 +16.1 98 +16 +16 1014.0 990.5
Ю 3 3000 м слаб. морось туман 10/10 60 м
[Frnb]
+16.3 +16.0 98 +16 +16 1014.1 990.6
Ю 5 3000 м слаб. морось туман 10/10 60 м
[Frnb]
+16.2 +15.9 98 +15 +15 1014.4 990.9
Ю 4 3000 м слаб. морось туман 10/10 60 м
[Frnb]
+16.2 +15.9 98 +16 +16 1015.0 991.4 +14.5 +18.6 0.3
Ю 4 2500 м морось туман 10/10 60 м
[Frnb]
+16.0 +15.7 98 +15 +15 1015.8 992.2
Ю 4 2500 м морось туман 10/10 60 м
[Frnb]
+15.9 +15.4 97 +15 +15 1016.0 992.5
Ю 3 2500 м морось туман 10/10 60 м
[Frnb]
+15.6 +15.3 98 +15 +15 1016.1 992.6
Ю 3 2500 м слаб. морось туман 10/10 90 м
[Frnb]
+15.4 +15.1 98 +15 +15 1016.0 992.5
Ю 3 2500 м слаб. морось туман 10/10 90 м
[Frnb]
+15.3 +15.0 98 +15 +15 1016.1 992.6
Ю 2 2000 м слаб. морось туман 10/10 90 м
[Frnb]
+15.3 +15.1 99 +15 +15 1015.7 992.2 1
Ю 3 2000 м слаб. морось туман 10/10 90 м
[Frnb]
+15.2 +14.9 98 +14 +14 1015.5 992.0
Ю 3 3000 м слаб. морось туман 10/10 120 м
[Frnb]
+15.0 +14.7 98 +14 +14 1014.9 991.4
Ю 3 3000 м слаб. морось туман 10/10 120 м
[Frnb]
+15.0 +14.7 98 +14 +14 1015.0 991.4
Местоположение метеостанции Сантьяго-дель-Эстеро (Аргентина): широта -27.76 долгота -64.30 высота над уровнем моря 199 м.
В архиве по умолчанию представлена погода в Сантьяго-дель-Эстеро за последнюю неделю. Архивные данные за месяц целиком и за предыдущие месяцы, начиная с января 2011 года, Вы можете получить, выбрав интересующий диапазон дат из раскрывающегося списка и нажав кнопку "Найти!".
*Определитесь, кто Вы:
Внимание! Время в таблицах - всемирное. Для получения местного времени необходимо прибавить поправку, которая равна -3 ч.
Некоторые строки с данными для отдельных станций могут быть выделены курсивом. Это означает, что фактические данные отсутствуют по различным причинам, а приведенные значения являются расчетными модельными данными для данного пункта наблюдений.
Смотрите также архив погоды в соседних городах и на ближайших метеорологических станциях:
Партнеры нашего сайта:      
Пояснения к столбцам:
  • Ветер - указаны скорость ветра в м/с - средняя за 10 мин, порывы в срок и между сроками (в фигурных скобках) и направление, откуда дует ветер: С - северный,
  • СВ - северо-восточный, В - восточный, ЮВ - юго-восточный, Ю - южный, ЮЗ - юго-западный, З - западный, СЗ - северо-западный.
  • Видимость - горизонтальная дальность видимости в метрах или километрах. При видимости от 1 до 10 км при отсутствии осадков обычно наблюдается дымка, при ухудшении видимости до 1 км и менее - туман. В сухую погоду видимость может ухудшаться дымом, пылью или мглою.
  • Явления - указаны атмосферные явления, наблюдавшиеся в срок или в последний час перед сроком; фигурными скобками обозначены явления, наблюдавшиеся между сроками (за 1-3 часа до срока); квадратными скобками обозначены град или гололедные отложения с указанием их диаметра в мм.
  • Облачность - указаны через наклонную черту общая и нижняя облачность в баллах и высота нижней границы облаков в метрах; квадратными скобками обозначены формы облаков: Ci - перистые, Cs - перисто-слоистые, Cc - перисто-кучевые, Ac - высококучевые, As - высокослоистые, Sc - слоисто-кучевые, Ns - слоисто-дождевые, Cu - кучевые, Cb - кучево-дождевые. Подробнее классификацию облаков см. в Атласе облаков (PDF).
  • T - Температура воздуха - температура, измеренная на высоте 2 м над землей.
  • Td - Температура точки росы - температура, при понижении до которой содержащийся в воздухе водяной пар достигнет насыщения.
  • f - Относительная влажность воздуха - влажноcть воздуха, измеренная на высоте 2 м над землей.
  • Te - Эффективная температура - температура, которую ощущает одетый по сезону человек в тени. Характеристика душности погоды. При расчете учитывается влияние влажности воздуха и скорости ветра на теплоощущения человека.
  • Tes - Эффективная температура на солнце - температура, которую ощущает человек, с поправкой на солнечный нагрев. Характеристика знойности погоды. Зависит от высоты солнца над горизонтом, облачности и скорости ветра. Ночью, в пасмурную погоду, а также при ветре 12 м/с и более поправка равна нулю.
  • P - Атмосферное давление - приведенное к уровню моря атмосферное давление.
  • Po - Атмосферное давление - измеренное на уровне метеостанции атмосферное давление.
  • Tmin - Минимальная температура - минимум температуры воздуха на высоте 2 м над землей.
  • Tmax - Максимальная температура - максимум температуры воздуха на высоте 2 м над землей.
  • R - Количество осадков - Количество выпавших осадков за период времени, мм. При наведении курсора мыши на число - период времени, за который выпало указанное количество осадков.
  • R24 - Количество осадков - Количество выпавших осадков за 24 часа, мм.
  • S - Снежный покров - Высота снежного покрова, см. При наведении курсора мыши на число - состояние снежного покрова и степень покрытия местности в баллах.